Regional Weather Roundup
Issued by NWS

Home | Current Version | Previous Version | Text Only | Print | Product List | Glossary Off
Versions: 1 2 3 4 5 6 7 8 9 10 11 12 13 14 15 16 17 18 19 20 21 22 23 24 25 26 27 28 29 30 31 32 33 34 35 36 37 38 39 40 41 42 43 44 45 46 47 48 49 50

248
ASUS45 KCYS 061110
RWRWY

WYOMING REGIONAL WEATHER ROUNDUP
NATIONAL WEATHER SERVICE CHEYENNE WY
400 AM MST TUE DEC 06 2016

NOTE:  "FAIR" INDICATES FEW OR NO CLOUDS BELOW 12,000 FEET
WITH NO SIGNIFICANT WEATHER AND/OR OBSTRUCTIONS TO VISIBILITY.

WYZ001-061200-
YELLOWSTONE NATIONAL PARK

CITY           SKY/WX    TMP DP  RH WIND       PRES   REMARKS
LK YELLOWSTONE   N/A     -4  -7  87 CALM      29.80F
W YELLOWSTONE  NOT AVBL

$$
WYZ002>013-054>058-071-098>099-061200-
NORTHERN WYOMING

CITY           SKY/WX    TMP DP  RH WIND       PRES   REMARKS
JACKSON        FAIR     -18 -20  91 N7        29.90F WCI -35
CODY           FAIR       3  -1  83 CALM      29.93F
GREYBULL       FAIR       9   4  80 SW3       29.99S
WORLAND        FAIR       1  -2  87 S8        29.96S WCI -13
SHERIDAN       LGT SNOW  11   6  81 NW8       30.00R WCI  -1
BUFFALO        FAIR       6  -3  66 N5        29.92S WCI  -3
GILLETTE       FAIR      -2  -4  91 W3        29.96R
HULETT         FLURRIES   5   1  85 SW5       29.95S WCI  -4
NEWCASTLE      FAIR       5   0  78 N8        29.95S WCI  -8

$$
WYZ014>020-022>026-101>103-061200-
CENTRAL WYOMING

CITY           SKY/WX    TMP DP  RH WIND       PRES   REMARKS
BIG PINEY      FAIR     -17 -22  78 CALM      29.89F
PINEDALE       FAIR     -18 -26  69 NW8       29.89F WCI -37
DUBOIS         FAIR      -4 -13  65 MISG      29.80S
LANDER         FAIR       4 -12  48 W7        29.88F WCI  -8
RIVERTON       FAIR       7  -8  50 CALM      29.90S
CASPER         FAIR       4  -4  69 SW15      29.90F WCI -14
DOUGLAS        FAIR      -5 -10  79 E3        29.93S

$$
WYZ021-027>030-104>119-061200-
SOUTHERN WYOMING

CITY           SKY/WX    TMP DP  RH WIND       PRES   REMARKS
EVANSTON       FAIR       2 -17  41 SE5       29.83F WCI  -8
KEMMERER         N/A     -9 -15  77 N10       29.85S WCI -28
FORT BRIDGER   FAIR       1 -15  46 SE6       29.88F WCI -11
ROCK SPRINGS   FAIR       1  -9  62 N3        29.88F
DIXON          FAIR      -2 -11  65 E3        29.96S
RAWLINS        FAIR       4  -9  55 SW12      29.86F WCI -12
SARATOGA       FAIR      -4 -11  71 S6        29.88S WCI -16
LARAMIE        FAIR      -6 -14  68 S9        29.84S WCI -23
CHEYENNE       FAIR       8 -10  43 W18G24    29.86S WCI -11
TORRINGTON     NOT AVBL
PINE BLUFFS    FAIR       7  -2  66 MISG      29.94F

$$




USA.gov is the U.S. government's official web portal to all federal, state and local government web resources and services.